Location: Newark
(40.9833°N, 0.0333°W)
Time: 01:21:28
(UTC+00:00)

Altair - Pass Details

Date: 04 November 2020
Orbit: 1502 x 1682 km, 47.2° (Epoch: 02 December)

Event Time Altitude Azimuth Distance (km) Brightness Sun altitude
Rises 00:53:10 0° 187° (S) 4,624 - -60.4°
Reaches altitude 10° 00:57:03 10° 173° (S) 3,642 - -59.9°
Maximum altitude 01:03:31 22° 127° (SE) 2,831 - -59.2°
Exits shadow 01:09:33 11° 84° (E) 3,580 9.6 -58.4°
Drops below altitude 10° 01:10:01 10° 81° (E) 3,684 9.7 -58.4°
Sets 01:13:57 0° 68° (ENE) 4,691 10.5 -57.9°
